Regional Weather Roundup
Issued by NWS

Home | Current Version | Previous Version | Text Only | Print | Product List | Glossary On
Versions: 1 2 3 4 5 6 7 8 9 10 11 12 13 14 15 16 17 18 19 20 21 22 23 24 25 26 27 28 29 30 31 32 33 34 35 36 37 38 39 40 41 42 43 44 45 46 47 48 49 50
000
ASUS43 KMKX 011410
RWRWI

WISCONSIN REGIONAL WEATHER ROUNDUP
NATIONAL WEATHER SERVICE MILWAUKEE/SULLIVAN WI
900 AM CDT WED APR 01 2015

NOTE: "FAIR" INDICATES FEW OR NO CLOUDS BELOW 12,000 FEET WITH NO
SIGNIFICANT WEATHER AND/OR OBSTRUCTIONS TO VISIBILITY.

WIZ001-002-006>008-014>016-023>028-011500-
NORTHWEST WISCONSIN

CITY           SKY/WX    TMP DP  RH WIND       PRES   REMARKS
SUPERIOR ARPT  CLOUDY    33  32  96 E17G24    29.84F WCI  21
ASHLAND        CLOUDY    32  32 100 N5        29.90F FOG     WCI  27
HAYWARD        CLOUDY    43  30  60 SE8G22    29.86F
SIREN          SUNNY     47  31  54 SE13G21   29.79F
CUMBERLAND     MOSUNNY   41  32  70 SE12      29.84F
RICE LAKE      MOSUNNY   43  31  64 SE20      29.86F
CHETEK         MOSUNNY   42  32  67 E9        29.87F
LADYSMITH      PTSUNNY   43  32  66 SE12      29.91F
EAU CLAIRE     SUNNY     47  31  53 SE10      29.88S
MENOMONIE      SUNNY     46  33  60 E13       29.86F
NEW RICHMOND   SUNNY     48  32  53 SE13G21   29.80F
OSCEOLA        MOSUNNY   48  33  54 SE15      29.81F
$$

WIZ003>005-009-010-017-018-011500-
NORTH CENTRAL WISCONSIN

CITY           SKY/WX    TMP DP  RH WIND       PRES   REMARKS
MANITOWISH WTR PTSUNNY   37  32  81 S10G16    29.93F WCI  30
ARBOR VITAE    MOSUNNY   37  31  81 S9        29.93F WCI  30
WOODRUFF       MOSUNNY   37  31  81 S9        29.93F WCI  30
RHINELANDER    CLOUDY    37  31  78 SE7       29.97R WCI  32
EAGLE RIVER    MOSUNNY   33  30  88 S5        29.95F WCI  28
LAND O LAKES   PTSUNNY   33  33 100 SE3       29.96S
PHILLIPS       SUNNY     39  31  73 SE8       29.92S WCI  33
TOMAHAWK       PTSUNNY   37  32  81 CALM      29.96S
MEDFORD        MOSUNNY   40  32  74 SE13G21   29.94F WCI  32
MERRILL        PTSUNNY   38  33  82 SE10      29.98S WCI  30
$$

WIZ029-030-035-036-043>047-011500-
CENTRAL WISCONSIN

CITY           SKY/WX    TMP DP  RH WIND       PRES   REMARKS
WAUSAU         PTSUNNY   38  33  82 SE9       29.98R WCI  31
MOSINEE        PTSUNNY   37  34  87 SE8       30.00R WCI  31
MARSHFIELD     SUNNY     42  32  67 SE7       29.97S
STEVENS POINT  PTSUNNY   38  32  78 SE8       30.01R WCI  32
WAUPACA        PTSUNNY   42  34  74 SE6       30.04R
WAUTOMA        PTSUNNY   37  34  89 CALM      30.03R
WISC RAPIDS    SUNNY     44  30  57 SE8G17    30.00R
CAMP DOUGLAS   MOSUNNY   45  36  70 SE12      29.97S
$$

WIZ011>013-019>022-031-037>040-048>050-011500-
NORTHEAST WISCONSIN

CITY           SKY/WX    TMP DP  RH WIND       PRES   REMARKS
ANTIGO         PTSUNNY   36  33  88 SE10      29.99S WCI  28
SHAWANO        MOSUNNY   34  32  91 NE3       30.04S
OCONTO         MOSUNNY   36  32  84 E3        30.05S
STURGEON BAY   SUNNY     36  30  80 E5        30.07S WCI  32
GREEN BAY      CLOUDY    36  33  89 NE5       30.05R WCI  32
MANITOWOC      PTSUNNY   38  35  89 CALM      30.06R
APPLETON       PTSUNNY   37  32  81 E7        30.03R WCI  32
CLINTONVILLE   CLOUDY    34  32  93 CALM      30.03S
OSHKOSH        MOSUNNY   43  34  70 SE7       30.03R
$$

WIZ032>034-041-042-053>061-011500-
SOUTHWEST WISCONSIN

CITY           SKY/WX    TMP DP  RH WIND       PRES   REMARKS
LA CROSSE      SUNNY     50  33  52 SE7       29.91F
SPARTA         SUNNY     49  31  48 SE5       29.95F
VIROQUA        SUNNY     46  32  59 SE14      29.93F
BOSCOBEL       SUNNY     46  34  62 NE3       29.96F
PRAIRIE DU CHI SUNNY     44  33  65 E9        29.93F
PLATTEVILLE    SUNNY     47  36  65 E7        29.97S
$$

WIZ056-057-062-063-064-067-068-011500-
SOUTH CENTRAL WISCONSIN

CITY           SKY/WX    TMP DP  RH WIND       PRES   REMARKS
REEDSBURG      SUNNY     46  32  58 SE7       29.98S
BARABOO/DELLS  SUNNY     47  31  52 SE6       29.99F
LONE ROCK      SUNNY     45  33  63 E12       29.99S
MINERAL POINT  SUNNY     46  34  61 SE8       29.97F
MADISON        MOSUNNY   46  32  58 SE8       30.01S
MIDDLETON      SUNNY     45  33  61 E7        30.01S
WATERTOWN      CLOUDY    44  34  68 E7        30.02F
MONROE         SUNNY     45  36  70 E5        30.00S
JANESVILLE     SUNNY     45  36  70 E7        30.01S
$$

WIZ051-052-058>065-066-070>072-011500-
SOUTHEAST WISCONSIN

CITY           SKY/WX    TMP DP  RH WIND       PRES   REMARKS
MILWAUKEE      MOSUNNY   44  33  65 SE7       30.07R
WAUKESHA       MOSUNNY   43  32  65 E7        30.05R
MILWAUKEE/TIMM SUNNY     43  32  65 E5        30.06R
RACINE         PTSUNNY   45  34  65 SE7       30.07R
BURLINGTON     SUNNY     43  34  71 E6        30.04F
KENOSHA        SUNNY     45  36  70 E7        30.05S
FOND DU LAC    CLOUDY    44  34  67 SE13      30.03S
SHEBOYGAN      MOSUNNY   39  35  86 CALM      30.05R
WEST BEND      PTSUNNY   43  34  70 E6        30.05R
JUNEAU         CLOUDY    42  34  72 SE10      30.04S
$$

LSZ147-162-011500-
LAKE SUPERIOR

STATION/POSITION TIME  TEMP    WIND        PRES    WAVE
                       AIR SEA DIR/SP/G            HT/PER
                 (UTC) (F)     (DEG/KT/KT) (MB)    (FT/S)
DEVILS ISLAND    1400   31      80/ 17/ 18 1013.7F
PORT WING        1300   32      40/ 14/ 15 1012.9F
SAXON HARBOR     1340   34        CALM     1012.5F
$$

LMZ867-665-643>646-011500-
LAKE MICHIGAN

STATION/POSITION TIME  TEMP    WIND        PRES    WAVE
                       AIR SEA DIR/SP/G            HT/PER
                 (UTC) (F)     (DEG/KT/KT) (MB)    (FT/S)
NORTHPORT PIER   1401   31     100/  4/  6 1018.3R
SISTER BAY       1317   39     150/  6/  8   N/A
KEWAUNEE LAKESHO 1300   34      40/  4/  6 1016.6R
SHEBOYGAN LAKESH 1400   36      90/  2/  3 1018.9R
PORT WASHINGTON  1340   42      80/  3/  4 1018.3R
MILWAUKEE LAKESH 1300   42      20/  1/  1   N/A
KENOSHA   LAKESH 1400   39        CALM     1017.9R
$$

TC  - TEMPERATURE IN CELSIUS
VSB - VISIBILITY IN STATUTE MILES
WCI - WIND CHILL INDEX
HX  - HEAT INDEX




USA.gov is the U.S. government's official web portal to all federal, state and local government web resources and services.